Weather History for Michigan City, IN

Change the Weather History Date:

Sunday, September 8, 2013

  Actual Average (KVPZ) Record (KVPZ)
Temperature  
Mean Temperature 70 °F 66 °F  
Max Temperature 77 °F 77 °F 94 °F (2002)
Min Temperature 62 °F 56 °F 50 °F (1999)
Degree Days  
Heating Degree Days 0 2  
Month to date heating degree days 11  
Since 1 July heating degree days 28  
Cooling Degree Days 4 3  
Month to date cooling degree days 30  
Year to date cooling degree days 666  
Growing Degree Days 20 (Base 50)    
Moisture  
Dew Point 63 °F    
Average Humidity 83    
Maximum Humidity 100    
Minimum Humidity 65    
Precipitation  
Precipitation 0.00 in 0.12 in 0.33 in (2008)
Month to date precipitation 1.05  
Year to date precipitation 26.59  
Sea Level Pressure  
Sea Level Pressure 30.00 in    
Wind  
Wind Speed 2 mph (ESE)    
Max Wind Speed 8 mph    
Max Gust Speed -    
Visibility 7 miles    
Events Fog    
T = Trace of Precipitation, MM = Missing Value Source: NWS Daily Summary

Daily Weather History Graph

Daily Weather History Graph

Search for Another Location

Airport:

Trip Planner

Search our weather history database for the weather conditions in past years. The results will help you decide how hot, cold, wet, or windy it might be!

Date:

Astronomy

Sep. 08, 2013 Rise Set
Actual Time 6:20 AM CDT 7:08 PM CDT
Civil Twilight 5:52 AM CDT 7:36 PM CDT
Nautical Twilight 5:18 AM CDT 8:09 PM CDT
Astronomical Twilight 4:44 AM CDT 8:44 PM CDT
Moon 9:41 AM CDT (9/8) 8:39 PM CDT (9/8)
Length of Visible Light 13h 43m
Length of Day
12h 47m
Waxing Crescent, 11% of the Moon is Illuminated
Sep 8
Waxing Crescent
Sep 12
First Quarter
Sep 19
Full
Sep 26
Last Quarter
Oct 4
New

Hourly Weather History & Observations

Time (CDT) Temp. Dew Point Humidity Pressure Visibility Wind Dir Wind Speed Gust Speed Precip Events Conditions
12:15 AM 66.2 °F 64.4 °F 94% 29.96 in 0.8 mi Calm Calm - N/A   Overcast
12:35 AM 66.2 °F 64.4 °F 94% 29.96 in 0.8 mi Calm Calm - N/A   Overcast
12:55 AM 66.2 °F 64.4 °F 94% 29.97 in 0.5 mi Calm Calm - N/A Fog Fog
1:15 AM 64.4 °F 64.4 °F 100% 29.96 in 0.2 mi Calm Calm - N/A Fog Fog
1:35 AM 64.4 °F 64.4 °F 100% 29.96 in 0.2 mi Calm Calm - N/A Fog Fog
1:55 AM 64.4 °F 62.6 °F 94% 29.96 in 0.2 mi Calm Calm - N/A Fog Fog
2:15 AM 64.4 °F 64.4 °F 100% 29.96 in 0.2 mi Calm Calm - N/A Fog Fog
2:35 AM 62.6 °F 62.6 °F 100% 29.96 in 0.2 mi Calm Calm - N/A Fog Fog
2:55 AM 62.6 °F 62.6 °F 100% 29.97 in 0.5 mi Calm Calm - N/A Fog Fog
3:15 AM 62.6 °F 62.6 °F 100% 29.97 in 0.5 mi Calm Calm - N/A Fog Fog
3:35 AM 62.6 °F 62.6 °F 100% 29.97 in 0.5 mi Calm Calm - N/A Fog Fog
3:55 AM 62.6 °F 62.6 °F 100% 29.97 in 1.0 mi Calm Calm - N/A   Mist
4:15 AM 62.6 °F 62.6 °F 100% 29.98 in 2.0 mi Calm Calm - N/A   Clear
4:35 AM 62.6 °F 62.6 °F 100% 29.98 in 1.5 mi Calm Calm - N/A   Mist
4:55 AM 62.6 °F 62.6 °F 100% 29.99 in 1.2 mi Calm Calm - N/A   Mist
5:15 AM 64.4 °F 62.6 °F 94% 29.99 in 5.0 mi Calm Calm - N/A   Clear
5:35 AM 64.4 °F 62.6 °F 94% 29.99 in 1.8 mi Calm Calm - N/A   Mist
5:55 AM 62.6 °F 60.8 °F 94% 29.99 in 0.2 mi Calm Calm - N/A Fog Fog
6:15 AM 62.6 °F 60.8 °F 94% 30.00 in 0.2 mi Calm Calm - N/A Fog Fog
6:35 AM 62.6 °F 62.6 °F 100% 30.01 in 0.2 mi Calm Calm - N/A Fog Fog
6:55 AM 62.6 °F 60.8 °F 94% 30.02 in 0.2 mi Calm Calm - N/A Fog Fog
7:15 AM 62.6 °F 60.8 °F 94% 30.02 in 0.8 mi Calm Calm - N/A   Mostly Cloudy
7:35 AM 64.4 °F 62.6 °F 94% 30.02 in 2.0 mi Calm Calm - N/A   Mostly Cloudy
7:55 AM 64.4 °F 64.4 °F 100% 30.02 in 3.0 mi Calm Calm - N/A   Overcast
8:15 AM 64.4 °F 64.4 °F 100% 30.03 in 3.0 mi ENE 4.6 mph - N/A   Overcast
8:35 AM 66.2 °F 64.4 °F 94% 30.03 in 3.0 mi East 3.5 mph - N/A   Overcast
8:55 AM 68.0 °F 66.2 °F 94% 30.02 in 5.0 mi East 5.8 mph - N/A   Mostly Cloudy
9:15 AM 69.8 °F 66.2 °F 88% 30.03 in 7.0 mi East 6.9 mph - N/A   Overcast
9:35 AM 71.6 °F 66.2 °F 83% 30.03 in 7.0 mi ESE 5.8 mph - N/A   Overcast
9:55 AM 71.6 °F 66.2 °F 83% 30.03 in 10.0 mi East 3.5 mph - N/A   Mostly Cloudy
10:15 AM 73.4 °F 66.2 °F 78% 30.03 in 10.0 mi East 5.8 mph - N/A   Mostly Cloudy
10:35 AM 73.4 °F 68.0 °F 83% 30.02 in 10.0 mi SE 6.9 mph - N/A   Scattered Clouds
10:55 AM 75.2 °F 66.2 °F 73% 30.03 in 10.0 mi ESE 4.6 mph - N/A   Mostly Cloudy
11:15 AM 73.4 °F 66.2 °F 78% 30.04 in 10.0 mi SE 6.9 mph - N/A   Overcast
11:35 AM 73.4 °F 66.2 °F 78% 30.04 in 10.0 mi ESE 6.9 mph - N/A   Overcast
11:55 AM 73.4 °F 66.2 °F 78% 30.03 in 10.0 mi SE 4.6 mph - N/A   Overcast
12:15 PM 73.4 °F 66.2 °F 78% 30.04 in 10.0 mi SE 5.8 mph - N/A   Overcast
12:35 PM 75.2 °F 66.2 °F 73% 30.04 in 10.0 mi SSE 5.8 mph - N/A   Mostly Cloudy
12:55 PM 77.0 °F 66.2 °F 69% 30.04 in 10.0 mi SE 5.8 mph - N/A   Overcast
1:15 PM 77.0 °F 64.4 °F 65% 30.03 in 10.0 mi SSE 6.9 mph - N/A   Scattered Clouds
1:35 PM 77.0 °F 64.4 °F 65% 30.03 in 10.0 mi East 6.9 mph - N/A   Mostly Cloudy
1:55 PM 75.2 °F 64.4 °F 69% 30.03 in 10.0 mi East 8.1 mph - N/A   Overcast
2:15 PM 77.0 °F 64.4 °F 65% 30.02 in 10.0 mi East 6.9 mph - N/A   Overcast
2:35 PM 75.2 °F 64.4 °F 69% 30.02 in 10.0 mi ESE 5.8 mph - N/A   Overcast
2:55 PM 75.2 °F 62.6 °F 65% 30.02 in 10.0 mi East 6.9 mph - N/A   Overcast
3:15 PM 75.2 °F 64.4 °F 69% 30.01 in 10.0 mi East 4.6 mph - N/A   Overcast
3:35 PM 75.2 °F 62.6 °F 65% 30.01 in 10.0 mi ESE 4.6 mph - N/A   Overcast
3:55 PM 77.0 °F 64.4 °F 65% 30.00 in 10.0 mi East 5.8 mph - N/A   Overcast
4:15 PM 75.2 °F 62.6 °F 65% 30.00 in 10.0 mi ESE 8.1 mph - N/A   Overcast
4:35 PM 75.2 °F 64.4 °F 69% 30.00 in 10.0 mi East 3.5 mph - N/A   Overcast
4:55 PM 73.4 °F 62.6 °F 69% 30.00 in 10.0 mi East 5.8 mph - N/A   Overcast
5:15 PM 73.4 °F 62.6 °F 69% 30.00 in 10.0 mi East 4.6 mph - N/A   Overcast
5:35 PM 73.4 °F 62.6 °F 69% 30.00 in 10.0 mi Calm Calm - N/A   Overcast
5:55 PM 73.4 °F 62.6 °F 69% 29.99 in 10.0 mi ESE 4.6 mph - N/A   Overcast
6:15 PM 73.4 °F 62.6 °F 69% 29.99 in 10.0 mi Calm Calm - N/A   Mostly Cloudy
6:35 PM 71.6 °F 62.6 °F 73% 29.99 in 10.0 mi East 3.5 mph - N/A   Clear
6:55 PM 71.6 °F 62.6 °F 73% 29.99 in 10.0 mi Calm Calm - N/A   Clear
7:15 PM 69.8 °F 62.6 °F 78% 29.99 in 10.0 mi Calm Calm - N/A   Scattered Clouds
7:35 PM 69.8 °F 62.6 °F 78% 29.99 in 10.0 mi East 3.5 mph - N/A   Scattered Clouds
7:55 PM 69.8 °F 62.6 °F 78% 29.99 in 10.0 mi ESE 3.5 mph - N/A   Scattered Clouds
8:15 PM 69.8 °F 62.6 °F 78% 29.99 in 10.0 mi Calm Calm - N/A   Clear
8:35 PM 69.8 °F 62.6 °F 78% 29.99 in 10.0 mi Calm Calm - N/A   Scattered Clouds
8:55 PM 69.8 °F 62.6 °F 78% 29.99 in 10.0 mi Calm Calm - N/A   Scattered Clouds
9:15 PM 69.8 °F 62.6 °F 78% 29.98 in 10.0 mi ESE 3.5 mph - N/A   Clear
9:35 PM 68.0 °F 62.6 °F 83% 29.99 in 7.0 mi Calm Calm - N/A   Clear
9:55 PM 69.8 °F 60.8 °F 73% 29.99 in 7.0 mi ESE 4.6 mph - N/A   Scattered Clouds
10:15 PM 69.8 °F 60.8 °F 73% 29.99 in 10.0 mi SE 6.9 mph - N/A   Scattered Clouds
10:35 PM 69.8 °F 60.8 °F 73% 30.00 in 10.0 mi SE 6.9 mph - N/A   Clear
10:55 PM 68.0 °F 60.8 °F 78% 30.00 in 10.0 mi SE 5.8 mph - N/A   Clear
11:15 PM 68.0 °F 60.8 °F 78% 30.00 in 10.0 mi SE 4.6 mph - N/A   Clear
11:35 PM 68.0 °F 60.8 °F 78% 30.00 in 10.0 mi ESE 3.5 mph - N/A   Clear
11:55 PM 68.0 °F 60.8 °F 78% 30.00 in 10.0 mi SSE 3.5 mph - N/A   Clear